Location: Larrial
(48.2758°N, 4.5331°W)
Time: 10:48:58
(UTC+00:00)

AAUSAT CUBESAT 2 - Pass Details

Date: 30 November 2021
Orbit: 571 x 586 km, 97.5° (Epoch: 20 January)

Event Time Altitude Azimuth Distance (km) Brightness Sun altitude
Rises 06:44:54 0° 360° (N) 2,795 ? -10.0°
Reaches altitude 10° 06:47:30 10° 343° (NNW) 1,893 ? -9.6°
Maximum altitude 06:50:27 20° 297° (WNW) 1,373 ? -9.1°
Drops below altitude 10° 06:53:25 10° 250° (WSW) 1,889 ? -8.7°
Sets 06:56:01 0° 233° (SW) 2,785 ? -8.3°
